Tracking 31027 objects as of 19-Jul-2025
HD Live streaming from Space Station
objects crossing your sky now

INMARSAT 2-F3

Track INMARSAT 2-F3 now!
INMARSAT 2-F3 is classified as:


NORAD ID: 21814
Int'l Code: 1991-084B
Perigee: 36,949.8 km
Apogee: 37,084.3 km
Inclination: 13.8 °
Period: 1,499.0 minutes
Semi major axis: 43388 km
RCS: 12.5892 m2 (large)
Launch date: December 16, 1991
Source: International Mobile Satellite Organization (INMARSAT) (IM)
Launch site: FRENCH GUIANA (FRGUI)

Broadcasting, business services, mobile communications; demand-assigned L-band transponders; spare satellite co-located with Inmarsat 3s.
Your satellite tracking list
STARLINK-5403
Track 1 satellite(s)




NASA's NSSDC Master Catalog

Two Line Element Set (TLE):
1 21814U 91084B   25199.87611700 -.00000075  00000-0  00000+0 0  9996
2 21814  13.8453  15.5366 0015494  81.9626 228.6497  0.96061133120047
Source of the keplerian elements: AFSPC